Regional Weather Roundup
Issued by NWS Grand Forks, ND

Home | Current Version | Previous Version | Text Only | Print | Product List | Glossary Off
Versions: 1 2 3 4 5 6 7 8 9 10 11 12 13 14 15 16 17 18 19 20 21 22 23 24 25 26 27 28 29 30 31 32 33 34 35 36 37 38 39 40 41 42 43 44 45 46 47 48 49 50

000
ASUS43 KFGF 171510
RWRFGF
PRAIRIE TO PINES  WEATHER ROUNDUP
NATIONAL WEATHER SERVICE EASTERN NORTH DAKOTA/GRAND FORKS ND
900 AM CST SAT FEB 17 2018

 **SATELLITE DATA USED TO AUGMENT SKY COVER AT AUTOMATED STATIONS**
 *****  WEATHER ACROSS EASTERN NORTH DAKOTA  *****

CITY           SKY/WX    TMP DP  RH WIND       PRES   REMARKS
GRAND FORKS    FAIR      15  10  80 W7        29.86R WCI   5
GRAND FRKS AFB SUNNY     15   8  72 NW13      29.85R WCI   2
GRAND FRKS NWS   N/A     15  11  84 NW7       29.83R WCI   5
DEVILS LAKE    FAIR       9   4  80 W18       29.86R WCI -10
FARGO          FAIR      17  12  80 W13       29.87R WCI   4
WAHPETON ARPT  FAIR      21  14  73 W10       29.89S WCI  10
$$

 ***** WEATHER ACROSS CENTRAL AND WESTERN NORTH DAKOTA  *****

CITY           SKY/WX    TMP DP  RH WIND       PRES   REMARKS
BISMARCK       FAIR      18  13  80 NW8       29.96R WCI   8
MINOT          PTSUNNY   12   6  77 W8        29.90R WCI   0
JAMESTOWN      FAIR      16  10  77 NW17      29.88R WCI   0
MINOT AFB      PTCLDY    13   7  78 W10       29.90F WCI   0
GARRISON         N/A      9   5  84 W9        29.93R WCI  -4
WILLISTON      FAIR       9   4  80 W13       29.96R WCI  -7
DICKINSON      FAIR      11   7  84 W13       29.92R WCI  -4
HETTINGER      FAIR      10   6  84 NW12      29.96R WCI  -5
$$

 *****  OTHER AIRPORT OBSERVATIONS IN OUR AREA  *****

CITY           SKY/WX    TMP DP  RH WIND       PRES   REMARKS
WALHALLA       FAIR      12   7  79 W16G25    29.82S WCI  -4
GRAFTON AIRPOR FAIR      14   9  79 W8        29.86R WCI   3
VALLEY CITY AR FAIR      14  12  92 W14       29.88R WCI  -1
CANDO          FAIR       7   5  92 W13       29.89R WCI  -9
CAVALIER APRT    N/A     12   9  85 NW9       29.83R WCI   0
GWINNER          N/A     21  16  79 W9        29.89R WCI  11
ROLLA          FAIR       9  -2  61 NW13      29.83R WCI  -7
 ***** THE ABOVE OBSERVATIONS ARE NON NWS ARE NOT QUALITY
       CONTROLLED AND MAY MIS-REPORT RAIN FOR SNOW...
$$

  *****  WEATHER ACROSS NORTHERN MINNESOTA  *****

CITY           SKY/WX    TMP DP  RH WIND       PRES   REMARKS
FLAG ISLAND    FAIR       5   0  78 NW7       29.74R WCI  -7
WARROAD        FAIR       9   3  78 W6        29.77R WCI  -1
ROSEAU         NOT AVBL
HALLOCK        FAIR       7   3  85 W5        29.82R WCI  -2
THF RVR FALLS  FLURRIES  14  10  84 W9        29.82R WCI   2
BAUDETTE       FAIR      12   5  73 NW10      29.74R WCI  -1
WASKISH        CLOUDY    12   9  85 W8        29.76R WCI   1
CROOKSTON      FLURRIES  14  10  85 NW12      29.86R WCI   0
STEPHEN NDAWN    N/A     12   7  79 W8          N/A  WCI   1
GREENBUSH NDAW   N/A      9   3  78 W8          N/A  WCI  -4
$$
  *****  WEATHER ACROSS CENTRAL AND WEST MINNESOTA  *****

CITY           SKY/WX    TMP DP  RH WIND       PRES   REMARKS
FOSSTON        FAIR      16   9  73 W8        29.81R WCI   5
BEMIDJI        FAIR      16  10  77 W10       29.77S WCI   3
PARK RAPIDS    FAIR      12  11  95 S3        29.79R
ELBOW LAKE     FAIR      17  14  86 NW7       29.87R WCI   8
WADENA         FAIR      18  12  79 W8        29.81S WCI   7
DETROIT LAKES  FAIR      19  14  79 W13       29.82R WCI   7
MOORHEAD       FAIR      19  12  73 W13       29.87S WCI   7
FERGUS FALLS   FAIR      18  12  79 NW9       29.87R WCI   6
MORRIS MN      FAIR      18  14  86 NW3       29.87R
STAPLES        FAIR      18  14  86 W8        29.82R WCI   7
$$
  *****  WEATHER ELSEWHERE ACROSS MINNESOTA  *****

CITY           SKY/WX    TMP DP  RH WIND       PRES   REMARKS
DULUTH         FAIR      17  11  77 W14       29.75S WCI   3
INTRNTL FALLS  FAIR      16   8  71 W14G21    29.72R WCI   2
ELY            FAIR      16  10  79 W9        29.70R WCI   4
CLOQUET        FAIR      18  10  73 SW9       29.78S WCI   6
WHEATON        FAIR      21  16  79 W7        29.91R WCI  13
BRAINERD       FAIR      16  11  80 SW7       29.82R WCI   6
HIBBING        FAIR      12   9  87 VRB3      29.74R
ALEXANDRIA     FAIR      20  15  81 W9        29.85R WCI   9
SAINT CLOUD    FAIR      22  17  81 W5        29.85R WCI  16
MINNEAPOLIS    LGT SNOW  25  23  92 SW5       29.89S FOG     WCI  19
$$

  *****  WEATHER ACROSS SOUTH DAKOTA  *****

CITY           SKY/WX    TMP DP  RH WIND       PRES   REMARKS
SIOUX FALLS    CLOUDY    25  23  92 W6        29.90R WCI  18
BROOKINGS      CLOUDY    25  23  93 W13       29.88S WCI  13
WATERTOWN      FAIR      19  17  92 NW12      29.87R WCI   7
HURON          LGT SNOW  23  19  85 NW10      29.93R FOG     WCI  12
SISSETON         N/A     24  17  74 NW14      29.89R WCI  12
ABERDEEN       FAIR      21  17  84 NW7       29.94R WCI  12
MITCHELL       PTSUNNY   24  20  84 W8        29.94R WCI  15
PIERRE         PTSUNNY   23  22  96 W10       29.96R WCI  12
MOBRIDGE       FAIR      24  18  77 NW14      29.91R WCI  12
RAPID CITY     FAIR      29  20  69 N13       29.96R WCI  19
$$

  *****  SOME WEATHER IN NEARBY STATES *****

CITY           SKY/WX    TMP DP  RH WIND       PRES   REMARKS
GLASGOW MT     MOCLDY     2  -2  83 W9        30.00R WCI -13
GREAT FALLS MT CLOUDY    14  10  84 SE6       29.90F WCI   5
CHEYENNE WY    FAIR      31   9  39 W28G36    30.00R WCI  17
SCOTTSBLUFF NE FAIR      33  18  53 NW9       30.02R
OMAHA NE       FLURRIES  32  19  58 W13G21    29.96R WCI  22
DES MOINES IA  CLOUDY    28  14  55 SE6       29.94F WCI  22
DAVENPORT IA   CLOUDY    27  16  63 S12       30.04F WCI  17
CHICAGO IL     CLOUDY    23  12  62 S7        30.08F WCI  15
EAU CLAIRE WI  LGT SNOW  21  19  92 SW6       29.90S VSB 3/4 WCI  13
LA CROSSE WI   CLOUDY    24  11  57 SE7       29.96F WCI  16
$$

  *****  SOME NATIONAL WEATHER *****

CITY           SKY/WX    TMP DP  RH WIND       PRES   REMARKS
LA GUARDIA NY  PTSUNNY   34  17  50 NE12      30.40F
RALEIGH NC     CLOUDY    45  33  63 E8        30.30F
ATLANTA GA     CLOUDY    55  51  86 E7        30.15S
NEW ORLEANS LA PTSUNNY   73  69  87 SW10      30.13R
OKLAHOMA CITY  PTSUNNY   38  35  89 SW10      30.06R
ALBUQUERQUE NM FOG       33  33 100 E3        30.22R VSB 1/4
SALT LAKE CITY FAIR      33  18  53 SE10      30.20R WCI  25
LOS ANGELES CA FAIR      53  26  35 E6        30.11R
BOISE ID       CLOUDY    34  27  75 SE10      30.10F
SEATTLE WA     LGT RAIN  44  41  89 S15G26    29.81F
$$

*** WEATHER ACROSS MANITOBA...SASKATCHEWAN AND ONTARIO ***
                ***ONTARIO***

CITY           SKY/WX    TMP DP  RH WIND       PRES   REMARKS
GERALDTON      FLURRIES  18  12  79 SW12G22   29.54F WCI   5
THUNDER BAY    MOSUNNY   23  12  63 W14G21    29.66F WCI  11
SIOUX LOOKOUT  FLURRIES  10   5  79 W12       29.62R WCI  -4
TORONTO        CLOUDY    28  19  69 S10       30.20F WCI  19
BIG TROUT LK   FLURRIES  -4  -8  84 NW9       29.48R WCI -20
PICKLE LAKE    MOSUNNY    7   1  78 W9        29.49S WCI  -7
DRYDEN         FLURRIES   9   5  85 W16       29.64R WCI  -9
KENORA         MOSUNNY    5   1  85 W8        29.69R WCI  -8
$$
                *** MANITOBA***

CITY           SKY/WX    TMP DP  RH WIND       PRES   REMARKS
BRANDON        MOCLDY     1  -4  78 W13       29.83S WCI -16
DAUPHIN        CLEAR      5  -2  72 W18G24    29.82R WCI -15
ISLAND LAKE    LGT SNOW  -4  -9  77 W10       29.57R WCI -21
PILOT MOUND      N/A      5   0  78 W12         N/A  WCI -11
THE PAS        PTCLDY    -2 -11  65 W15       29.73R WCI -22
THOMPSON       MOCLDY   -13 -20  70 W9        29.57R WCI -31
WINNIPEG       MOSUNNY    3  -2  78 W10       29.81R WCI -12
LYNN LAKE      LGT SNOW  -9 -15  77 NW14G20   29.54R WCI -31
CHURCHILL      LGT SNOW -27 -35  68 NW17G23   29.55R VSB 1   WCI -56
$$
                ***SASKATCHEWAN***

CITY           SKY/WX    TMP DP  RH WIND       PRES   REMARKS
ESTEVAN        MOCLDY    14   9  79 W13       29.88F WCI   0
KINDERSLEY     PTCLDY     0  -8  71 W12       29.93S WCI -18
LLOYDMINSTER   CLOUDY     1  -6  71 W14G21    29.87R WCI -17
PRINCE ALBERT  PTCLDY     3  -2  78 W7        29.85S WCI  -9
REGINA         PTCLDY     1  -4  78 W17       29.89R WCI -19
YORKTON        MOCLDY     0  -6  78 W12       29.83R WCI -18
N. BATTLEFORD  CLOUDY     5  -4  66 W13       29.91R WCI -12
LA RONGE       LGT SNOW   1  -6  71 NW16      29.76R WCI -18
SASKATOON      MOCLDY     0  -6  78 W9        29.92R WCI -16
SWIFT CURRENT  CLEAR     -4  -9  77 W14       29.90R WCI -24
$$
NOTE: THESE ARE AUTOMATED STATIONS WITH LIMITED QUALITY CONTROL
      "FAIR" INDICATES FEW OR NO CLOUDS BELOW 12,000 FEET WITH NO
      SIGNIFICANT WEATHER AND/OR OBSTRUCTIONS TO VISIBILITY.
      SKY/WX - SKY CONDITION AND SIGNIFICANT WEATHER.
      TMP - AIR TEMPERATURE.    DP   - DEWPOINT TEMPERATURE.
      RH  - RELATIVE HUMIDITY.  PRES - PRESSURE.
      HX  - HEAT INDEX.         WCI  - WIND CHILL INDEX.
$



USA.gov is the U.S. government's official web portal to all federal, state and local government web resources and services.